Terminal Aerodrome Forecast
Issued by NWS

Home | Current Version | Previous Version | Text Only | Print | Product List | Glossary On
Versions: 1 2 3 4 5 6 7 8 9 10 11 12 13 14 15 16 17 18 19
000
FTUS45 KRIW 150550
TAFCPR
TAF
KCPR 150550Z 1506/1606 32007KT P6SM VCSH SCT050 BKN080
     FM150800 22007KT P6SM -RA SCT028 BKN050
     FM151300 22011KT P6SM VCSH SCT035 BKN060
     FM151800 32007KT P6SM SCT060 BKN110
     FM152200 34010KT P6SM VCSH SCT050 BKN080
     FM160400 30007KT P6SM SCT080 BKN150=

USA.gov is the U.S. government's official web portal to all federal, state and local government web resources and services.